Waarnemingen

Advertentie
Mijn weer
Konstanz, Duitsland (10929): temperatuur & dauwpunt: 14.08.2018 22:00:00 - 20.08.2018 22:00:00 (CEST)Konstanz, Duitsland (10929): temperatuur 5cm & temperatuur -5cm: 14.08.2018 22:00:00 - 20.08.2018 22:00:00 (CEST)Konstanz, Duitsland (10929): temperatuur -20cm & temperatuur -100cm: 14.08.2018 22:00:00 - 20.08.2018 22:00:00 (CEST)Konstanz, Duitsland (10929): windsnelheid & windstoten: 14.08.2018 22:00:00 - 20.08.2018 22:00:00 (CEST)Konstanz, Duitsland (10929): windrichting: 14.08.2018 22:00:00 - 20.08.2018 22:00:00 (CEST)Konstanz, Duitsland (10929): luchtdruk: 14.08.2018 22:00:00 - 20.08.2018 22:00:00 (CEST)Konstanz, Duitsland (10929): zicht: 14.08.2018 22:00:00 - 20.08.2018 22:00:00 (CEST)Konstanz, Duitsland (10929): Zonneschijnduur: 14.08.2018 22:00:00 - 20.08.2018 22:00:00 (CEST)Konstanz, Duitsland (10929): neerslag: 14.08.2018 22:00:00 - 20.08.2018 22:00:00 (CEST)
Datum & Tijd tt [°C] td [°C] tt 5cm [°C] tt -5cm [°C] tt -20cm [°C] tt -100cm [°C] ff [km/u] ff [kn] fx [km/u] fx [kn] dd ppp [hPa] vv [km] sd [min] rr [mm]
20.08.2018 22:00:00 - - - - - - - - - - - - - - -
20.08.2018 21:00:00 26,2 14,0 24,2 30,3 29,2 22,8 4 2 13 7 ZZW 1016,0 62 0 0,0
20.08.2018 20:00:00 27,9 13,5 26,8 32,1 29,2 22,7 7 4 18 10 Z 1015,2 70 51 0,0
20.08.2018 19:00:00 30,5 10,9 32,1 33,5 29,1 22,7 8 5 14 7 ZZW 1014,7 70 60 0,0
20.08.2018 18:00:00 30,9 11,6 34,8 34,2 28,7 22,7 11 6 15 8 Z 1015,0 67 60 0,0
20.08.2018 17:00:00 30,8 11,1 35,7 34,4 28,1 22,7 7 4 17 9 OZO 1015,5 38 60 0,0
20.08.2018 16:00:00 30,2 11,7 35,9 34,0 27,4 22,7 5 3 18 10 Z 1016,0 47 60 0,0
20.08.2018 15:00:00 30,7 11,8 35,6 33,0 26,7 22,7 5 3 14 7 Z 1016,5 47 60 0,0
20.08.2018 14:00:00 28,1 10,7 33,5 31,5 26,0 22,7 7 4 16 9 ZZO 1017,5 41 59 0,0
20.08.2018 13:00:00 28,3 11,8 33,3 29,9 25,5 22,7 10 5 14 8 ZZW 1017,9 47 60 0,0
20.08.2018 12:00:00 26,2 11,2 30,0 28,1 25,0 22,7 6 4 13 7 ZO 1018,6 55 60 0,0
20.08.2018 11:00:00 25,6 13,0 28,3 26,2 24,8 22,7 5 3 10 5 ZO 1018,8 53 60 0,0
20.08.2018 10:00:00 23,7 11,9 24,6 24,1 24,9 22,7 5 3 11 6 O 1019,2 66 60 0,0
20.08.2018 09:00:00 22,8 13,0 20,8 23,0 25,1 22,7 0 0 10 5 N 1019,2 69 60 0,0
20.08.2018 08:00:00 19,7 14,2 19,1 23,0 25,3 22,7 8 4 12 7 NW 1019,7 52 13 0,0
20.08.2018 07:00:00 19,6 14,1 19,1 23,2 25,6 22,6 9 5 10 5 NW 1019,6 53 0 0,0
20.08.2018 06:00:00 19,8 14,4 18,2 23,7 25,9 22,6 5 3 9 5 NW 1019,3 48 0 0,0
20.08.2018 05:00:00 20,4 15,8 19,0 24,1 26,2 22,6 0 0 3 2 N 1019,1 45 0 0,0
20.08.2018 04:00:00 21,0 15,2 19,1 24,6 26,5 22,6 5 3 10 5 NW 1019,2 52 0 0,0
20.08.2018 03:00:00 22,5 13,5 21,3 25,2 26,8 22,6 7 4 10 5 NW 1018,9 66 0 0,0
20.08.2018 02:00:00 22,6 13,9 21,0 25,6 27,2 22,6 5 3 10 6 WNW 1018,9 58 0 0,0
20.08.2018 01:00:00 23,4 13,8 22,0 26,3 27,5 22,6 7 4 10 6 NNW 1018,8 63 0 0,0
20.08.2018 00:00:00 24,1 14,6 23,0 27,0 27,9 22,6 7 4 12 6 NNW 1018,8 63 0 0,0
19.08.2018 23:00:00 23,1 17,7 21,2 27,9 28,2 22,6 5 3 20 11 ZZW 1018,4 47 0 0,4
19.08.2018 22:00:00 26,1 14,5 25,7 29,0 28,5 22,6 7 4 16 9 NW 1017,7 63 0 0,0
19.08.2018 21:00:00 26,7 14,4 26,1 30,0 28,7 22,6 8 5 15 8 WZW 1017,3 65 0 0,0
19.08.2018 20:00:00 27,9 13,5 27,3 31,5 28,7 22,6 8 4 14 7 ZW 1016,5 70 30 0,0
19.08.2018 19:00:00 30,0 12,6 31,3 33,1 28,5 22,6 8 4 14 7 WZW 1016,1 67 60 0,0
19.08.2018 18:00:00 30,4 13,1 33,8 33,9 28,1 22,6 10 6 21 11 WZW 1016,3 54 60 0,0
19.08.2018 17:00:00 29,7 12,8 34,5 34,1 27,5 22,6 9 5 17 9 WZW 1016,5 41 60 0,0
19.08.2018 16:00:00 30,5 14,2 34,1 33,6 26,8 22,6 8 4 20 11 Z 1016,9 43 60 0,0
19.08.2018 15:00:00 29,3 14,1 35,5 32,5 26,0 22,6 9 5 19 11 Z 1017,7 36 60 0,0
19.08.2018 14:00:00 28,5 14,0 34,2 31,1 25,3 22,6 8 5 15 8 Z 1018,4 38 60 0,0
19.08.2018 13:00:00 27,0 13,9 31,7 29,3 24,7 22,6 9 5 14 8 ZZW 1019,1 36 60 0,0
19.08.2018 12:00:00 25,6 13,3 29,6 27,4 24,2 22,6 6 3 13 7 ZO 1019,8 28 59 0,0
19.08.2018 11:00:00 23,7 12,7 27,2 25,5 24,0 22,6 6 4 12 7 Z 1020,7 27 60 0,0
19.08.2018 10:00:00 22,4 14,3 24,2 23,4 23,9 22,6 6 3 10 5 Z 1021,0 25 60 0,0
19.08.2018 09:00:00 21,4 14,3 20,5 22,2 24,1 22,6 4 2 8 5 NNW 1021,0 23 60 0,0
19.08.2018 08:00:00 19,2 14,0 18,7 22,0 24,3 22,6 4 2 8 4 WNW 1021,3 23 48 0,0
19.08.2018 07:00:00 17,9 14,2 16,4 22,0 24,6 22,6 5 3 11 6 W 1021,2 21 0 0,0
19.08.2018 06:00:00 18,2 14,4 17,2 22,4 24,9 22,6 5 3 7 4 NW 1020,9 20 0 0,0
19.08.2018 05:00:00 18,4 15,3 16,5 22,9 25,2 22,6 4 2 10 5 NNW 1021,1 16 0 0,0
19.08.2018 04:00:00 19,5 14,8 17,8 23,4 25,5 22,6 5 3 17 9 NO 1020,9 39 0 0,0
19.08.2018 03:00:00 20,0 14,8 18,3 24,0 25,8 22,6 5 3 8 5 NO 1020,9 42 0 0,0
19.08.2018 02:00:00 20,9 15,3 19,7 24,6 26,0 22,6 5 3 10 5 NNO 1020,9 39 0 0,0
19.08.2018 01:00:00 21,6 15,7 21,0 25,2 26,3 22,6 5 3 8 4 N 1020,9 33 0 0,0
19.08.2018 00:00:00 22,4 16,0 22,0 25,7 26,5 22,6 5 3 8 4 N 1020,7 41 0 0,0
18.08.2018 23:00:00 22,9 15,4 22,7 26,2 26,8 22,6 5 3 12 7 NW 1020,1 43 0 0,0
18.08.2018 22:00:00 23,7 16,1 23,4 26,9 27,0 22,6 5 3 11 6 O 1019,9 29 0 0,0
18.08.2018 21:00:00 24,9 15,2 24,0 27,7 27,2 22,6 5 3 6 3 Z 1018,8 52 0 0,0
18.08.2018 20:00:00 25,8 14,6 25,4 28,6 27,4 22,6 4 2 6 3 Z 1018,3 53 0 0,0
18.08.2018 19:00:00 26,5 14,3 26,5 29,6 27,4 22,6 0 0 5 3 N 1017,6 59 0 0,0
18.08.2018 18:00:00 26,9 13,7 27,7 31,0 27,2 22,6 2 1 10 5 O 1017,6 61 22 0,0
18.08.2018 17:00:00 27,7 14,7 30,6 31,9 26,7 22,6 5 3 16 8 OZO 1017,6 60 44 0,0
18.08.2018 16:00:00 27,5 14,4 30,9 31,7 26,1 22,6 4 2 14 8 Z 1018,0 63 37 0,0
18.08.2018 15:00:00 27,4 14,2 34,0 31,7 25,3 22,6 9 5 17 9 ZW 1018,5 42 60 0,0
18.08.2018 14:00:00 26,7 14,4 31,7 30,2 24,6 22,6 10 5 18 10 Z 1019,1 38 60 0,0
18.08.2018 13:00:00 25,8 15,2 31,0 28,2 24,0 22,6 7 4 14 7 ZZW 1019,3 37 53 0,0
18.08.2018 12:00:00 24,1 16,0 27,4 26,0 23,6 22,6 8 5 13 7 O 1019,9 44 46 0,0
18.08.2018 11:00:00 22,5 14,8 25,1 24,6 23,4 22,6 6 4 13 7 WZW 1020,4 44 48 0,0
18.08.2018 10:00:00 21,0 15,5 22,9 22,7 23,3 22,6 5 3 10 5 W 1020,4 38 20 0,0
18.08.2018 09:00:00 19,2 15,4 19,8 21,8 23,4 22,6 5 3 8 4 W 1020,5 44 0 0,0
18.08.2018 08:00:00 18,8 15,3 19,1 21,5 23,5 22,6 4 2 8 4 W 1020,2 54 0 0,0
18.08.2018 07:00:00 18,4 15,3 18,3 21,5 23,7 22,6 4 2 10 5 WNW 1020,3 57 0 0,0
18.08.2018 06:00:00 18,4 15,7 18,3 21,6 23,9 22,6 6 3 11 6 NW 1020,1 56 0 0,0
18.08.2018 05:00:00 18,6 15,8 18,4 21,7 24,1 22,5 7 4 12 7 NNW 1019,8 60 0 0,0
18.08.2018 04:00:00 18,4 15,2 18,1 21,9 24,4 22,5 2 1 9 5 NW 1019,7 70 0 0,0
18.08.2018 03:00:00 18,3 14,7 17,8 22,1 24,6 22,5 6 3 11 6 WZW 1019,5 70 0 0,0
18.08.2018 02:00:00 18,4 15,2 17,9 22,4 24,9 22,5 6 3 10 5 ZW 1019,5 70 0 0,0
18.08.2018 01:00:00 18,6 15,2 18,2 22,7 25,2 22,5 6 3 16 8 W 1019,2 70 0 0,0
18.08.2018 00:00:00 18,4 15,4 18,0 23,0 25,6 22,5 7 4 13 7 W 1019,1 70 0 0,0
17.08.2018 23:00:00 18,1 14,7 17,2 23,4 26,0 22,5 8 4 14 7 WZW 1018,5 70 0 0,0
17.08.2018 22:00:00 18,4 14,7 17,8 24,1 26,5 22,5 6 4 15 8 WZW 1018,5 70 0 0,0
17.08.2018 21:00:00 18,5 14,4 17,8 25,0 26,9 22,5 8 5 35 19 ZO 1017,2 70 0 0,0
17.08.2018 20:00:00 19,0 14,9 17,2 26,4 27,3 22,5 16 9 41 22 W 1016,8 70 0 0,9
17.08.2018 19:00:00 20,7 13,6 20,1 28,3 27,5 22,5 23 12 40 22 W 1016,2 61 0 0,0
17.08.2018 18:00:00 23,6 11,6 23,7 30,4 27,4 22,5 17 9 35 19 ZW 1014,9 70 8 0,0
17.08.2018 17:00:00 28,7 9,2 30,8 31,7 27,0 22,5 11 6 30 16 NO 1013,4 70 32 0,0
17.08.2018 16:00:00 28,5 12,5 31,5 32,0 26,5 22,5 16 9 34 18 NNO 1013,2 70 22 0,0
17.08.2018 15:00:00 29,4 13,6 36,3 32,6 25,7 22,5 7 4 16 8 ZZO 1012,9 48 60 0,0
17.08.2018 14:00:00 29,4 14,8 34,4 31,1 24,9 22,5 6 3 14 8 ZZO 1013,0 45 60 0,0
17.08.2018 13:00:00 27,9 13,4 32,4 29,3 24,2 22,5 8 5 16 9 ZW 1013,7 52 60 0,0
17.08.2018 12:00:00 25,4 13,9 29,8 27,2 23,7 22,5 6 3 13 7 ZW 1014,6 47 60 0,0
17.08.2018 11:00:00 23,9 14,7 27,7 24,8 23,4 22,5 6 3 12 6 OZO 1014,9 46 60 0,0
17.08.2018 10:00:00 22,6 15,0 24,0 22,7 23,4 22,5 5 3 8 4 OZO 1014,8 52 59 0,0
17.08.2018 09:00:00 20,4 14,0 19,4 21,2 23,5 22,5 3 2 5 3 ZZW 1015,0 64 60 0,0
17.08.2018 08:00:00 18,1 14,2 17,4 21,0 23,8 22,5 4 2 6 3 W 1015,3 57 60 0,0
17.08.2018 07:00:00 16,8 14,6 15,0 21,0 24,1 22,5 4 2 6 4 NW 1015,1 52 6 0,0
17.08.2018 06:00:00 17,0 14,5 16,0 21,3 24,4 22,5 6 4 8 4 WNW 1014,5 54 0 0,0
17.08.2018 05:00:00 17,2 14,0 15,0 21,8 24,8 22,5 5 3 6 4 NW 1014,1 59 0 0,0
17.08.2018 04:00:00 17,3 14,5 15,1 22,4 25,1 22,5 3 2 10 6 NW 1014,3 62 0 0,0
17.08.2018 03:00:00 18,2 14,6 16,9 22,9 25,5 22,5 9 5 13 7 N 1014,0 70 0 0,0
17.08.2018 02:00:00 18,9 14,3 17,2 23,5 25,9 22,5 8 4 11 6 NNO 1013,9 70 0 0,0
17.08.2018 01:00:00 19,3 14,8 17,4 24,3 26,3 22,5 5 3 9 5 NO 1013,9 70 0 0,0
17.08.2018 00:00:00 20,6 15,4 18,5 25,0 26,7 22,5 7 4 12 6 NNO 1013,7 70 0 0,0
16.08.2018 23:00:00 21,2 14,0 19,6 26,0 27,1 22,5 6 3 8 4 NNO 1013,3 70 0 0,0
16.08.2018 22:00:00 22,8 12,3 20,1 27,1 27,4 22,5 2 1 6 3 ONO 1013,0 70 0 0,0
16.08.2018 21:00:00 24,3 12,2 21,7 28,7 27,6 22,5 4 2 6 4 Z 1012,6 70 17 0,0
16.08.2018 20:00:00 27,6 10,4 26,7 30,7 27,6 22,5 6 3 12 6 Z 1011,9 70 60 0,0
16.08.2018 19:00:00 29,2 10,2 30,7 32,1 27,4 22,5 7 4 15 8 Z 1011,8 70 60 0,0
16.08.2018 18:00:00 29,7 9,9 33,4 32,9 27,0 22,6 10 5 15 8 Z 1012,1 58 60 0,0
16.08.2018 17:00:00 29,5 10,5 33,2 33,0 26,3 22,6 5 3 13 7 ONO 1012,4 54 60 0,0
16.08.2018 16:00:00 28,8 10,9 34,1 32,6 25,6 22,6 9 5 18 10 Z 1013,0 47 60 0,0
16.08.2018 15:00:00 27,7 9,0 33,4 31,6 24,7 22,6 9 5 18 10 ZZO 1013,9 44 60 0,0
16.08.2018 14:00:00 28,4 11,8 33,9 30,0 23,9 22,6 7 4 16 9 ZZO 1014,2 46 60 0,0
16.08.2018 13:00:00 26,8 11,7 32,1 28,1 23,2 22,6 6 4 15 8 OZO 1014,9 58 60 0,0
16.08.2018 12:00:00 23,5 11,9 27,7 26,0 22,6 22,6 6 4 12 6 ZZO 1016,1 52 60 0,0
16.08.2018 11:00:00 22,9 13,2 26,3 23,7 22,3 22,6 5 3 11 6 OZO 1016,7 64 60 0,0
16.08.2018 10:00:00 21,2 13,0 22,5 21,1 22,3 22,6 4 2 10 6 N 1017,4 70 60 0,0
16.08.2018 09:00:00 19,3 12,6 17,5 19,7 22,5 22,6 4 2 8 5 ZO 1017,9 59 60 0,0
16.08.2018 08:00:00 17,5 13,6 16,5 19,5 22,7 22,6 3 2 7 4 N 1018,3 40 60 0,0
16.08.2018 07:00:00 15,4 13,2 13,8 19,5 23,0 22,6 6 3 9 5 N 1018,5 46 8 0,0
16.08.2018 06:00:00 15,7 13,3 14,0 19,9 23,4 22,6 4 2 9 5 N 1018,4 54 0 0,0
16.08.2018 05:00:00 15,9 13,3 13,8 20,4 23,7 22,6 2 1 5 3 W 1018,6 55 0 0,0
16.08.2018 04:00:00 16,4 13,3 14,2 20,9 24,1 22,6 4 2 6 3 WNW 1018,6 70 0 0,0
16.08.2018 03:00:00 16,7 13,0 14,6 21,5 24,4 22,6 3 2 5 3 W 1018,8 70 0 0,0
16.08.2018 02:00:00 17,5 13,0 15,4 22,1 24,8 22,6 3 2 7 4 NNW 1019,0 70 0 0,0
16.08.2018 01:00:00 18,4 12,5 16,2 22,8 25,2 22,6 0 0 9 5 N 1019,0 70 0 0,0
16.08.2018 00:00:00 19,2 13,1 17,5 23,6 25,6 22,7 8 4 13 7 N 1018,8 70 0 0,0
15.08.2018 23:00:00 20,1 14,1 18,4 24,5 26,0 22,7 6 4 10 5 NNO 1018,6 70 0 0,0
15.08.2018 22:00:00 20,8 13,2 19,0 25,7 26,4 22,7 4 2 8 4 ONO 1018,7 70 0 0,0
15.08.2018 21:00:00 22,7 13,5 20,8 27,1 26,6 22,7 4 2 6 3 ZO 1018,0 70 22 0,0
15.08.2018 20:00:00 24,7 10,4 24,8 29,0 26,6 22,7 4 2 9 5 OZO 1017,4 70 60 0,0
15.08.2018 19:00:00 25,7 10,5 27,8 30,5 26,4 22,7 7 4 14 8 OZO 1017,2 70 60 0,0
15.08.2018 18:00:00 27,0 9,2 30,9 31,4 25,9 22,7 5 3 14 7 ONO 1017,3 59 60 0,0
15.08.2018 17:00:00 26,8 8,7 30,4 31,5 25,3 22,8 5 3 17 9 Z 1017,5 56 60 0,0
15.08.2018 16:00:00 27,7 10,3 32,3 31,1 24,5 22,8 8 4 21 11 NO 1017,7 62 60 0,0
15.08.2018 15:00:00 27,1 11,5 31,0 30,2 23,6 22,8 9 5 18 10 NNO 1018,3 49 60 0,0
15.08.2018 14:00:00 25,4 11,3 29,2 28,6 22,7 22,8 9 5 17 9 O 1018,9 70 58 0,0
15.08.2018 13:00:00 24,1 12,3 27,7 26,5 22,0 22,8 7 4 15 8 OZO 1019,3 47 60 0,0
15.08.2018 12:00:00 22,3 12,9 25,6 24,5 21,4 22,8 7 4 13 7 OZO 1020,1 52 60 0,0
15.08.2018 11:00:00 21,9 13,8 25,1 22,3 21,1 22,8 6 3 11 6 ZZO 1020,1 56 60 0,0
15.08.2018 10:00:00 20,4 13,3 21,0 19,9 21,0 22,8 4 2 7 4 ZZW 1020,3 64 60 0,0
15.08.2018 09:00:00 18,6 12,9 17,1 18,3 21,1 22,8 4 2 8 5 W 1020,6 60 60 0,0
15.08.2018 08:00:00 16,2 13,0 15,9 18,1 21,3 22,9 5 3 6 3 W 1020,7 62 60 0,0
15.08.2018 07:00:00 15,3 13,0 13,4 17,9 21,6 22,9 4 2 11 6 NW 1020,8 68 5 0,0
15.08.2018 06:00:00 15,4 12,3 14,6 18,2 21,8 22,9 8 4 9 5 NW 1020,7 70 0 0,0
15.08.2018 05:00:00 15,8 12,7 14,9 18,5 22,1 22,9 7 4 10 5 NW 1020,4 70 0 0,0
15.08.2018 04:00:00 15,8 12,4 14,3 18,9 22,4 22,9 4 2 10 6 NW 1020,2 70 0 0,0
15.08.2018 03:00:00 16,6 12,9 15,2 19,4 22,7 22,9 8 4 13 7 NNW 1019,9 70 0 0,0
15.08.2018 02:00:00 16,7 13,5 14,6 19,8 23,0 22,9 5 3 8 4 WZW 1019,9 70 0 0,0
15.08.2018 01:00:00 17,6 13,2 16,1 20,3 23,3 22,9 6 3 10 5 WNW 1019,6 70 0 0,0
15.08.2018 00:00:00 18,5 14,1 17,0 20,9 23,6 22,9 7 4 11 6 NW 1019,0 70 0 0,0
14.08.2018 23:00:00 19,1 13,9 16,7 21,6 23,9 23,0 5 3 11 6 WNW 1018,6 70 0 0,0
14.08.2018 22:00:00 20,4 13,5 19,9 22,2 24,2 23,0 10 5 17 9 WNW 1018,0 70 0 0,0

tt = temperatuur
td = dauwpunt
tt 5cm = temperatuur 5cm
tt -5cm = temperatuur -5cm
tt -20cm = temperatuur -20cm
tt -100cm = temperatuur -100cm
ff = windsnelheid
fx = windstoten
dd = windrichting
ppp = luchtdruk
vv = zicht
sd = Zonneschijnduur
rr = neerslag

Weerstations in de omgeving